T 2009 May 16.001 TT MPC q 6.05031 (2000.0) P Q Peri. 293.278 +0.267011 +0.699314 Node 41.590 +0.635202 +0.389722 e 1.0 Incl. 92.684 -0.724724 +0.599230 From 9 observations 2009 Oct. 17.19.
m1 = 7.5 + 5 logΔ + 10.0 log r